OK,48,48,882,48,2014-10-01T01:40:00,0,28072652,195658
OK,48,48,882,48,2014-10-01T01:45:00,0,28073099,195658
OK,48,48,882,48,2014-10-01T01:50:00,0,28073547,195658
OK,48,48,882,48,2014-10-01T01:55:00,0,28073865,195658
OK,48,48,882,48,2014-10-01T02:00:00,0,28074314,195658
OK,48,48,882,48,2014-10-01T02:05:00,0,28074755,195658
OK,48,48,882,48,2014-10-01T02:10:00,0,28075203,195658
OK,48,48,882,48,2014-10-01T02:15:00,0,28075652,195658
OK,48,48,882,48,2014-10-01T02:20:00,0,28076038,195658
OK,48,48,882,48,2014-10-01T02:25:00,0,28076484,195658
OK,48,48,882,48,2014-10-01T02:30:00,0,28076933,195658
OK,48,48,882,48,2014-10-01T02:35:00,0,28077382,195658
OK,56,41,882,56,2014-10-01T02:40:00,1,28077785,195658
OK,56,41,882,56,2014-10-01T02:45:00,0,28078234,195658
OK,46,50,882,46,2014-10-01T02:50:00,1,28078679,195658
OK,46,50,882,46,2014-10-01T02:55:00,1,28079128,195658
OK,46,50,882,46,2014-10-01T03:00:00,0,28079570,195658
OK,46,50,882,46,2014-10-01T03:05:00,0,28080019,195658
OK,51,45,882,51,2014-10-01T03:10:00,1,28080353,195658
OK,51,45,882,51,2014-10-01T03:15:00,1,28080802,195658
OK,51,45,882,51,2014-10-01T03:20:00,1,28081251,195658
OK,51,45,882,51,2014-10-01T03:25:00,0,28081698,195658
OK,51,45,882,51,2014-10-01T03:30:00,0,28082147,195658
OK,51,45,882,51,2014-10-01T03:35:00,0,28082581,195658
OK,51,45,882,51,2014-10-01T03:40:00,0,28083012,195658
OK,51,45,882,51,2014-10-01T03:45:00,0,28083461,195658
OK,51,45,882,51,2014-10-01T03:50:00,0,28083910,195658
OK,51,45,882,51,2014-10-01T03:55:00,0,28084352,195658
OK,112,20,882,112,2014-10-01T04:00:00,1,28084778,195658
OK,112,20,882,112,2014-10-01T04:05:00,0,28085225,195658
OK,112,20,882,112,2014-10-01T04:10:00,0,28085670,195658
OK,112,20,882,112,2014-10-01T04:15:00,0,28086119,195658
OK,64,36,882,64,2014-10-01T04:20:00,2,28086561,195658
OK,53,43,882,53,2014-10-01T04:25:00,3,28087010,195658
OK,100,23,882,100,2014-10-01T04:30:00,1,28087455,195658
OK,100,23,882,100,2014-10-01T04:35:00,1,28087904,195658
OK,21,110,882,21,2014-10-01T04:40:00,2,28088329,195658
OK,31,75,882,31,2014-10-01T04:45:00,5,28088777,195658
OK,39,59,882,39,2014-10-01T04:50:00,4,28089207,195658
OK,47,49,882,47,2014-10-01T04:55:00,1,28089656,195658
OK,64,36,882,64,2014-10-01T05:05:00,3,28090105,195658
OK,77,30,882,77,2014-10-01T05:10:00,2,28090898,195658
OK,111,20,882,111,2014-10-01T05:15:00,2,28091347,195658
OK,104,22,882,104,2014-10-01T05:20:00,3,28091764,195658
OK,106,21,882,106,2014-10-01T05:25:00,4,28092213,195658
OK,68,34,882,68,2014-10-01T05:30:00,7,28092657,195658
OK,59,39,882,59,2014-10-01T05:35:00,8,28093098,195658
OK,64,36,882,64,2014-10-01T05:40:00,4,28093529,195658
OK,79,29,882,79,2014-10-01T05:45:00,4,28093978,195658
OK,54,43,882,54,2014-10-01T05:50:00,4,28094391,195658
OK,76,30,882,76,2014-10-01T05:55:00,6,28094834,195658
OK,63,36,882,63,2014-10-01T06:00:00,8,28095281,195658
OK,46,50,882,46,2014-10-01T06:05:00,4,28095730,195658
OK,69,33,882,69,2014-10-01T06:10:00,7,28096143,195658
OK,80,29,882,80,2014-10-01T06:15:00,9,28096592,195658
OK,58,40,882,58,2014-10-01T06:20:00,5,28097026,195658
OK,53,43,882,53,2014-10-01T06:25:00,4,28097475,195658
OK,40,58,882,40,2014-10-01T06:30:00,3,28097924,195658
OK,40,58,882,40,2014-10-01T06:35:00,0,28098363,195658
OK,40,58,882,40,2014-10-01T06:40:00,0,28098805,195658
OK,86,27,882,86,2014-10-01T06:45:00,2,28099253,195658
OK,97,23,882,97,2014-10-01T06:50:00,3,28099596,195658
OK,66,35,882,66,2014-10-01T06:55:00,5,28100045,195658
OK,66,35,882,66,2014-10-01T07:00:00,5,28100352,195658
OK,71,32,882,71,2014-10-01T07:05:00,2,28100801,195658
OK,79,29,882,79,2014-10-01T07:10:00,5,28101172,195658
OK,73,31,882,73,2014-10-01T07:15:00,6,28101621,195658
OK,84,27,882,84,2014-10-01T07:20:00,3,28102057,195658
OK,108,21,882,108,2014-10-01T07:25:00,5,28102506,195658
OK,98,23,882,98,2014-10-01T07:30:00,5,28102937,195658
OK,48,48,882,48,2014-10-01T07:35:00,3,28103380,195658
OK,98,23,882,98,2014-10-01T07:40:00,7,28103825,195658
OK,98,23,882,98,2014-10-01T07:45:00,7,28104270,195658
OK,78,29,882,78,2014-10-01T07:50:00,0,28104712,195658
OK,55,42,882,55,2014-10-01T07:55:00,4,28105156,195658
OK,49,47,882,49,2014-10-01T08:00:00,4,28105596,195658
OK,44,52,882,44,2014-10-01T08:05:00,1,28106045,195658
OK,44,52,882,44,2014-10-01T08:10:00,0,28106482,195658
OK,69,33,882,69,2014-10-01T08:15:00,3,28106888,195658
OK,68,34,882,68,2014-10-01T08:20:00,6,28107320,195658
OK,44,52,882,44,2014-10-01T08:25:00,4,28107769,195658
OK,95,24,882,95,2014-10-01T08:30:00,5,28108208,195658
OK,73,31,882,73,2014-10-01T08:35:00,5,28108657,195658
OK,83,28,882,83,2014-10-01T08:40:00,6,28109085,195658
OK,90,25,882,90,2014-10-01T08:45:00,5,28109534,195658
OK,89,26,882,89,2014-10-01T08:50:00,2,28109877,195658
OK,102,22,882,102,2014-10-01T08:55:00,1,28110326,195658
OK,68,34,882,68,2014-10-01T09:00:00,4,28110749,195658
OK,27,86,882,27,2014-10-01T09:05:00,5,28111198,195658
OK,25,93,882,25,2014-10-01T09:10:00,2,28111627,195658
OK,68,34,882,68,2014-10-01T09:15:00,2,28112076,195658
OK,60,38,882,60,2014-10-01T09:20:00,9,28112417,195658
OK,67,34,882,67,2014-10-01T09:25:00,12,28112866,195658
OK,67,34,882,67,2014-10-01T09:30:00,8,28113290,195658
OK,42,55,882,42,2014-10-01T09:35:00,5,28113739,195658
OK,41,56,882,41,2014-10-01T09:40:00,4,28114171,195658
OK,81,28,882,81,2014-10-01T09:45:00,2,28114620,195658
OK,79,29,882,79,2014-10-01T09:50:00,7,28114974,195658
OK,75,31,882,75,2014-10-01T09:55:00,13,28115423,195658
OK,74,31,882,74,2014-10-01T10:00:00,11,28115835,195658
OK,70,33,882,70,2014-10-01T10:05:00,4,28116284,195658
OK,80,29,882,80,2014-10-01T10:10:00,2,28116692,195658
OK,113,20,882,113,2014-10-01T10:15:00,3,28117141,195658
OK,64,36,882,64,2014-10-01T10:20:00,6,28117566,195658
OK,60,38,882,60,2014-10-01T10:25:00,5,28118015,195658
OK,71,32,882,71,2014-10-01T10:30:00,2,28118460,195658
OK,71,32,882,71,2014-10-01T10:35:00,2,28118907,195658
OK,101,23,882,101,2014-10-01T10:40:00,3,28119351,195658
OK,102,22,882,102,2014-10-01T10:45:00,5,28119799,195658
OK,110,21,882,110,2014-10-01T10:50:00,5,28120247,195658
OK,50,46,882,50,2014-10-01T10:55:00,8,28120696,195658
OK,47,49,882,47,2014-10-01T11:00:00,7,28121079,195658
OK,81,28,882,81,2014-10-01T11:05:00,4,28121528,195658
OK,90,25,882,90,2014-10-01T11:10:00,7,28121966,195658
OK,109,21,882,109,2014-10-01T11:15:00,7,28122415,195658
OK,90,25,882,90,2014-10-01T11:20:00,7,28122856,195658
OK,91,25,882,91,2014-10-01T11:25:00,9,28123305,195658
OK,86,27,882,86,2014-10-01T11:30:00,8,28123737,195658
OK,76,30,882,76,2014-10-01T11:35:00,3,28124186,195658
OK,79,29,882,79,2014-10-01T11:40:00,7,28124588,195658
OK,79,29,882,79,2014-10-01T11:45:00,6,28125037,195658
OK,98,23,882,98,2014-10-01T11:50:00,6,28125466,195658
OK,71,32,882,71,2014-10-01T11:55:00,10,28125915,195658
OK,71,32,882,71,2014-10-01T12:00:00,7,28126267,195658
OK,81,28,882,81,2014-10-01T12:05:00,3,28126716,195658
OK,114,20,882,114,2014-10-01T12:10:00,9,28127165,195658
OK,108,21,882,108,2014-10-01T12:15:00,15,28127614,195658
OK,86,27,882,86,2014-10-01T12:20:00,10,28128042,195658
OK,94,24,882,94,2014-10-01T12:25:00,6,28128491,195658
OK,108,21,882,108,2014-10-01T12:30:00,7,28128926,195658
OK,107,21,882,107,2014-10-01T12:35:00,6,28129375,195658
OK,80,29,882,80,2014-10-01T12:40:00,4,28129809,195658
OK,150,15,882,150,2014-10-01T12:45:00,9,28130258,195658
OK,141,16,882,141,2014-10-01T12:50:00,8,28130686,195658
OK,83,28,882,83,2014-10-01T12:55:00,4,28131135,195658
OK,90,25,882,90,2014-10-01T13:00:00,6,28131572,195658
OK,61,38,882,61,2014-10-01T13:05:00,9,28132021,195658
OK,61,38,882,61,2014-10-01T13:10:00,9,28132459,195658
OK,59,39,882,59,2014-10-01T13:15:00,7,28132906,195658
OK,268,8,882,268,2014-10-01T13:20:00,13,28133344,195658
OK,273,8,882,273,2014-10-01T13:25:00,12,28133793,195658
OK,195,11,882,195,2014-10-01T13:30:00,10,28134232,195658
OK,155,15,882,155,2014-10-01T13:35:00,12,28134681,195658
OK,102,22,882,102,2014-10-01T13:40:00,8,28135100,195658
OK,158,14,882,158,2014-10-01T13:45:00,11,28135549,195658
OK,131,17,882,131,2014-10-01T13:50:00,15,28135986,195658
OK,117,19,882,117,2014-10-01T13:55:00,12,28136435,195658
OK,195,11,882,195,2014-10-01T14:00:00,8,28136875,195658
OK,236,9,882,236,2014-10-01T14:05:00,10,28137324,195658
OK,136,17,882,136,2014-10-01T14:10:00,12,28137758,195658
OK,147,15,882,147,2014-10-01T14:15:00,4,28138207,195658
OK,176,13,882,176,2014-10-01T14:20:00,4,28138635,195658
OK,99,23,882,99,2014-10-01T14:25:00,7,28139084,195658
OK,102,22,882,102,2014-10-01T14:30:00,6,28139495,195658
OK,151,15,882,151,2014-10-01T14:35:00,11,28139944,195658
OK,97,23,882,97,2014-10-01T14:40:00,10,28140386,195658
OK,77,30,882,77,2014-10-01T14:45:00,9,28140835,195658
OK,93,25,882,93,2014-10-01T14:50:00,10,28141261,195658
OK,64,36,882,64,2014-10-01T14:55:00,5,28141710,195658
OK,67,34,882,67,2014-10-01T15:00:00,5,28142138,195658
OK,102,22,882,102,2014-10-01T15:05:00,9,28142587,195658
OK,106,21,882,106,2014-10-01T15:10:00,7,28143014,195658
OK,148,15,882,148,2014-10-01T15:15:00,2,28143463,195658
OK,115,20,882,115,2014-10-01T15:20:00,5,28143911,195658
OK,62,37,882,62,2014-10-01T15:25:00,7,28144360,195658
OK,50,46,882,50,2014-10-01T15:30:00,4,28144782,195658
OK,64,36,882,64,2014-10-01T15:35:00,4,28145195,195658
OK,64,36,882,64,2014-10-01T15:40:00,2,28145644,195658
OK,103,22,882,103,2014-10-01T15:45:00,5,28146093,195658
OK,77,30,882,77,2014-10-01T15:50:00,5,28146542,195658
OK,81,28,882,81,2014-10-01T15:55:00,4,28146951,195658
OK,106,21,882,106,2014-10-01T16:00:00,6,28147394,195658
OK,96,24,882,96,2014-10-01T16:05:00,6,28147843,195658
OK,107,21,882,107,2014-10-01T16:10:00,3,28148244,195658
OK,107,21,882,107,2014-10-01T16:15:00,1,28148693,195658
OK,59,39,882,59,2014-10-01T16:20:00,2,28149132,195658
OK,121,19,882,121,2014-10-01T16:25:00,5,28149581,195658
OK,76,30,882,76,2014-10-01T16:30:00,5,28150007,195658
OK,55,42,882,55,2014-10-01T16:35:00,6,28150456,195658
OK,75,31,882,75,2014-10-01T16:40:00,5,28150874,195658
OK,48,48,882,48,2014-10-01T16:45:00,2,28151323,195658
OK,48,48,882,48,2014-10-01T16:50:00,2,28151772,195658
OK,90,25,882,90,2014-10-01T17:00:00,1,28152221,195658
OK,85,27,882,85,2014-10-01T17:05:00,3,28152667,195658
OK,76,30,882,76,2014-10-01T17:10:00,3,28153114,195658
OK,57,40,882,57,2014-10-01T17:15:00,2,28153563,195658
OK,71,32,882,71,2014-10-01T17:20:00,2,28153973,195658
OK,73,31,882,73,2014-10-01T17:25:00,2,28154422,195658
OK,102,22,882,102,2014-10-01T17:30:00,1,28154864,195658
OK,66,35,882,66,2014-10-01T17:35:00,5,28155312,195658
OK,66,35,882,66,2014-10-01T17:40:00,3,28155730,195658
OK,64,36,882,64,2014-10-01T17:45:00,2,28156179,195658
OK,69,33,882,69,2014-10-01T17:50:00,6,28156628,195658
OK,69,33,882,69,2014-10-01T17:55:00,7,28157066,195658
OK,84,27,882,84,2014-10-01T18:00:00,3,28157496,195658
OK,52,44,882,52,2014-10-01T18:05:00,7,28157944,195658
OK,49,47,882,49,2014-10-01T18:10:00,5,28158388,195658
OK,71,32,882,71,2014-10-01T18:15:00,1,28158834,195658
OK,71,32,882,71,2014-10-01T18:20:00,0,28159280,195658
OK,71,32,882,71,2014-10-01T18:25:00,0,28159615,195658
OK,71,32,882,71,2014-10-01T18:30:00,0,28160064,195658
OK,71,32,882,71,2014-10-01T18:35:00,0,28160513,195658
OK,18,129,882,18,2014-10-01T18:40:00,2,28160951,195658
OK,18,129,882,18,2014-10-01T18:45:00,2,28161400,195658
OK,64,36,882,64,2014-10-01T18:50:00,1,28161817,195658
OK,64,36,882,64,2014-10-01T18:55:00,1,28162266,195658
OK,34,68,882,34,2014-10-01T19:00:00,2,28162662,195658
OK,39,59,882,39,2014-10-01T19:05:00,4,28163099,195658
OK,30,77,882,30,2014-10-01T19:10:00,2,28163547,195658
OK,25,93,882,25,2014-10-01T19:15:00,0,28163996,195658
OK,93,25,882,93,2014-10-01T19:20:00,1,28164427,195658
OK,93,25,882,93,2014-10-01T19:25:00,1,28164876,195658
OK,27,86,882,27,2014-10-01T19:30:00,1,28165301,195658
OK,54,43,882,54,2014-10-01T19:35:00,1,28165749,195658
OK,59,39,882,59,2014-10-01T19:40:00,2,28166190,195658
OK,54,43,882,54,2014-10-01T19:45:00,2,28166552,195658
OK,44,52,882,44,2014-10-01T19:50:00,2,28167001,195658
OK,60,38,882,60,2014-10-01T19:55:00,2,28167430,195658
OK,76,30,882,76,2014-10-01T20:00:00,0,28167864,195658
OK,76,30,882,76,2014-10-01T20:05:00,0,28168312,195658
OK,76,30,882,76,2014-10-01T20:10:00,0,28168757,195658
OK,42,55,882,42,2014-10-01T20:15:00,4,28169206,195658
OK,40,58,882,40,2014-10-01T20:20:00,5,28169654,195658
OK,38,61,882,38,2014-10-01T20:25:00,4,28170080,195658
OK,39,59,882,39,2014-10-01T20:30:00,3,28170525,195658
OK,22,105,882,22,2014-10-01T20:35:00,0,28170973,195658
OK,22,105,882,22,2014-10-01T20:40:00,0,28171410,195658
OK,22,105,882,22,2014-10-01T20:45:00,0,28171856,195658
OK,22,105,882,22,2014-10-01T20:50:00,0,28172304,195658
OK,22,105,882,22,2014-10-01T20:55:00,0,28172750,195658
OK,22,105,882,22,2014-10-01T21:00:00,0,28173196,195658
OK,22,105,882,22,2014-10-01T21:05:00,0,28173645,195658
OK,22,105,882,22,2014-10-01T21:10:00,0,28174086,195658
OK,22,105,882,22,2014-10-01T21:15:00,0,28174535,195658
OK,67,34,882,67,2014-10-01T21:20:00,2,28174961,195658
OK,67,34,882,67,2014-10-01T21:25:00,2,28175357,195658
OK,67,34,882,67,2014-10-01T21:30:00,0,28175806,195658
OK,67,34,882,67,2014-10-01T21:35:00,0,28176255,195658
OK,67,34,882,67,2014-10-01T21:40:00,0,28176704,195658
OK,67,34,882,67,2014-10-01T21:45:00,0,28177062,195658
OK,67,34,882,67,2014-10-01T21:50:00,0,28177500,195658
OK,42,55,882,42,2014-10-01T21:55:00,1,28177946,195658
OK,42,55,882,42,2014-10-01T22:00:00,0,28178395,195658
OK,42,55,882,42,2014-10-01T22:05:00,0,28178842,195658
OK,42,55,882,42,2014-10-01T22:10:00,0,28179276,195658
OK,42,55,882,42,2014-10-01T22:15:00,0,28179719,195658
OK,42,55,882,42,2014-10-01T22:20:00,0,28180166,195658
OK,42,55,882,42,2014-10-01T22:25:00,0,28180564,195658
OK,42,55,882,42,2014-10-01T22:30:00,0,28181013,195658
OK,42,55,882,42,2014-10-01T22:35:00,0,28181437,195658
OK,42,55,882,42,2014-10-01T22:40:00,0,28181885,195658
OK,42,55,882,42,2014-10-01T22:45:00,0,28182332,195658
OK,42,55,882,42,2014-10-01T22:50:00,0,28182781,195658
OK,42,55,882,42,2014-10-01T22:55:00,0,28183198,195658
OK,42,55,882,42,2014-10-01T23:00:00,0,28183631,195658
OK,42,55,882,42,2014-10-01T23:05:00,0,28184076,195658
OK,42,55,882,42,2014-10-01T23:10:00,0,28184525,195658
OK,42,55,882,42,2014-10-01T23:15:00,0,28184960,195658
OK,42,55,882,42,2014-10-01T23:20:00,0,28185408,195658
OK,48,48,882,48,2014-10-01T23:25:00,1,28185839,195658
OK,48,48,882,48,2014-10-01T23:30:00,0,28186231,195658
OK,48,48,882,48,2014-10-01T23:40:00,0,28187078,195658
OK,48,48,882,48,2014-10-01T23:55:00,0,28188410,195658
OK,48,48,882,48,2014-10-02T00:00:00,0,28188846,195658
OK,48,48,882,48,2014-10-02T00:05:00,0,28189295,195658
OK,48,48,882,48,2014-10-02T00:10:00,0,28189717,195658
OK,48,48,882,48,2014-10-02T00:15:00,0,28190166,195658
OK,48,48,882,48,2014-10-02T00:20:00,0,28190519,195658
OK,48,48,882,48,2014-10-02T00:25:00,0,28190968,195658
OK,48,48,882,48,2014-10-02T00:30:00,0,28191417,195658
OK,48,48,882,48,2014-10-02T00:35:00,0,28191723,195658
OK,48,48,882,48,2014-10-02T00:40:00,0,28192172,195658
OK,48,48,882,48,2014-10-02T00:45:00,0,28192605,195658
OK,48,48,882,48,2014-10-02T00:50:00,0,28193049,195658
OK,48,48,882,48,2014-10-02T00:55:00,0,28193416,195658
OK,48,48,882,48,2014-10-02T01:05:00,0,28194314,195658
OK,48,48,882,48,2014-10-02T01:10:00,0,28194763,195658
OK,48,48,882,48,2014-10-02T01:15:00,0,28195017,195658
OK,48,48,882,48,2014-10-02T01:20:00,0,28195448,195658
OK,48,48,882,48,2014-10-02T01:30:00,0,28195897,195658
OK,48,48,882,48,2014-10-02T01:35:00,0,28196630,195658
OK,48,48,882,48,2014-10-02T01:40:00,0,28197053,195658
OK,48,48,882,48,2014-10-02T01:45:00,0,28197502,195658
OK,48,48,882,48,2014-10-02T01:50:00,0,28197950,195658
OK,48,48,882,48,2014-10-02T01:55:00,0,28198398,195658
OK,48,48,882,48,2014-10-02T02:00:00,0,28198847,195658
OK,48,48,882,48,2014-10-02T02:05:00,0,28199222,195658
OK,48,48,882,48,2014-10-02T02:10:00,0,28199661,195658
OK,48,48,882,48,2014-10-02T02:15:00,0,28200103,195658
OK,48,48,882,48,2014-10-02T02:20:00,0,28200546,195658
OK,48,48,882,48,2014-10-02T02:25:00,0,28200995,195658
OK,48,48,882,48,2014-10-02T02:30:00,0,28201426,195658
OK,48,48,882,48,2014-10-02T02:45:00,0,28202324,195658
OK,29,80,882,29,2014-10-02T02:50:00,2,28202766,195658
OK,29,80,882,29,2014-10-02T02:55:00,0,28203214,195658
OK,54,43,882,54,2014-10-02T03:00:00,1,28203649,195658
OK,54,43,882,54,2014-10-02T03:10:00,0,28204098,195658
OK,54,43,882,54,2014-10-02T03:25:00,0,28204547,195658
OK,54,43,882,54,2014-10-02T03:30:00,0,28204996,195658
OK,54,43,882,54,2014-10-02T03:35:00,0,28205424,195658
OK,54,43,882,54,2014-10-02T03:40:00,0,28205871,195658
OK,54,43,882,54,2014-10-02T03:45:00,0,28206254,195658
OK,54,43,882,54,2014-10-02T03:55:00,0,28207152,195658
OK,54,43,882,54,2014-10-02T04:00:00,0,28207572,195658
OK,54,43,882,54,2014-10-02T04:05:00,0,28208020,195658
OK,63,36,882,63,2014-10-02T04:10:00,1,28208447,195658
OK,63,36,882,63,2014-10-02T04:15:00,0,28208896,195658
OK,61,38,882,61,2014-10-02T04:20:00,2,28209334,195658
OK,60,38,882,60,2014-10-02T04:25:00,0,28209783,195658
OK,44,52,882,44,2014-10-02T04:30:00,2,28210206,195658
OK,20,116,882,20,2014-10-02T04:35:00,1,28210655,195658
OK,58,40,882,58,2014-10-02T04:40:00,5,28211080,195658
OK,31,75,882,31,2014-10-02T04:45:00,1,28211524,195658
OK,31,75,882,31,2014-10-02T04:50:00,0,28211902,195658
OK,69,33,882,69,2014-10-02T04:55:00,5,28212351,195658
OK,69,33,882,69,2014-10-02T05:00:00,0,28212780,195658
OK,106,21,882,106,2014-10-02T05:05:00,5,28213229,195658
OK,107,21,882,107,2014-10-02T05:10:00,4,28213667,195658
OK,94,24,882,94,2014-10-02T05:15:00,2,28214116,195658
OK,63,36,882,63,2014-10-02T05:20:00,0,28214529,195658
OK,64,36,882,64,2014-10-02T05:25:00,1,28214978,195658
OK,64,36,882,64,2014-10-02T05:30:00,0,28215394,195658
OK,65,35,882,65,2014-10-02T05:40:00,6,28215843,195658
OK,46,50,882,46,2014-10-02T05:45:00,3,28216622,195658
OK,46,50,882,46,2014-10-02T05:50:00,0,28217069,195658
OK,80,29,882,80,2014-10-02T05:55:00,4,28217518,195658
OK,79,29,882,79,2014-10-02T06:00:00,3,28217957,195658
OK,91,25,882,91,2014-10-02T06:05:00,4,28218406,195658
OK,91,25,882,91,2014-10-02T06:10:00,4,28218826,195658
OK,98,23,882,98,2014-10-02T06:15:00,4,28219275,195658
OK,73,31,882,73,2014-10-02T06:20:00,5,28219648,195658
OK,90,25,882,90,2014-10-02T06:25:00,5,28220097,195658
OK,100,23,882,100,2014-10-02T06:30:00,4,28220531,195658
OK,87,26,882,87,2014-10-02T06:35:00,3,28220980,195658
OK,46,50,882,46,2014-10-02T06:40:00,3,28221364,195658
OK,51,45,882,51,2014-10-02T06:45:00,2,28221647,195658
OK,74,31,882,74,2014-10-02T07:00:00,2,28222241,195658
OK,60,38,882,60,2014-10-02T07:05:00,2,28222690,195658
OK,62,37,882,62,2014-10-02T07:10:00,3,28223121,195658
OK,89,26,882,89,2014-10-02T07:15:00,1,28223557,195658
OK,89,26,882,89,2014-10-02T07:20:00,0,28224004,195658
OK,91,25,882,91,2014-10-02T07:25:00,4,28224359,195658
OK,92,25,882,92,2014-10-02T07:30:00,3,28224808,195658
OK,70,33,882,70,2014-10-02T07:35:00,5,28225257,195658
OK,67,34,882,67,2014-10-02T07:40:00,2,28225579,195658
OK,57,40,882,57,2014-10-02T07:50:00,7,28226469,195658
OK,57,40,882,57,2014-10-02T07:55:00,3,28226918,195658
OK,58,40,882,58,2014-10-02T08:00:00,0,28227333,195658
OK,99,23,882,99,2014-10-02T08:05:00,4,28227782,195658
OK,104,22,882,104,2014-10-02T08:10:00,0,28228141,195658
OK,81,28,882,81,2014-10-02T08:15:00,5,28228590,195658
OK,17,136,882,17,2014-10-02T08:20:00,1,28229000,195658
OK,72,32,882,72,2014-10-02T08:25:00,6,28229449,195658
OK,60,38,882,60,2014-10-02T08:30:00,5,28229799,195658
OK,65,35,882,65,2014-10-02T08:35:00,2,28230248,195658
OK,49,47,882,49,2014-10-02T08:40:00,0,28230616,195658
OK,49,47,882,49,2014-10-02T08:45:00,0,28231063,195658
OK,114,20,882,114,2014-10-02T08:50:00,7,28231486,195658
OK,114,20,882,114,2014-10-02T08:55:00,1,28231935,195658
OK,60,38,882,60,2014-10-02T09:00:00,2,28232277,195658
OK,60,38,882,60,2014-10-02T09:10:00,0,28232726,195658
OK,79,29,882,79,2014-10-02T09:15:00,7,28233175,195658
OK,84,27,882,84,2014-10-02T09:20:00,0,28233599,195658
OK,75,31,882,75,2014-10-02T09:25:00,2,28234048,195658
OK,75,31,882,75,2014-10-02T09:30:00,2,28234381,195658
OK,75,31,882,75,2014-10-02T09:35:00,2,28234830,195658
OK,25,93,882,25,2014-10-02T09:40:00,1,28235257,195658
OK,84,27,882,84,2014-10-02T09:45:00,4,28235706,195658
OK,53,43,882,53,2014-10-02T09:50:00,0,28236149,195658
OK,88,26,882,88,2014-10-02T09:55:00,16,28236596,195658
OK,101,23,882,101,2014-10-02T10:00:00,11,28236999,195658
OK,103,22,882,103,2014-10-02T10:05:00,0,28237447,195658
OK,79,29,882,79,2014-10-02T10:10:00,5,28237895,195658
OK,90,25,882,90,2014-10-02T10:15:00,9,28238342,195658
OK,92,25,882,92,2014-10-02T10:20:00,8,28238783,195658
OK,66,35,882,66,2014-10-02T10:25:00,4,28239232,195658
OK,66,35,882,66,2014-10-02T10:30:00,2,28239662,195658
OK,51,45,882,51,2014-10-02T10:35:00,3,28240111,195658
OK,52,44,882,52,2014-10-02T10:40:00,7,28240555,195658
OK,80,29,882,80,2014-10-02T10:45:00,8,28241004,195658
OK,86,27,882,86,2014-10-02T10:50:00,2,28241436,195658
OK,61,38,882,61,2014-10-02T10:55:00,7,28241884,195658
OK,60,38,882,60,2014-10-02T11:00:00,2,28242280,195658
OK,61,38,882,61,2014-10-02T11:05:00,0,28242729,195658
OK,80,29,882,80,2014-10-02T11:15:00,6,28243178,195658
OK,66,35,882,66,2014-10-02T11:20:00,8,28243941,195658
OK,85,27,882,85,2014-10-02T11:25:00,2,28244370,195658
OK,86,27,882,86,2014-10-02T11:30:00,0,28244819,195658
OK,58,40,882,58,2014-10-02T11:35:00,8,28245268,195658
OK,16,145,882,16,2014-10-02T11:40:00,1,28245674,195658
OK,16,145,882,16,2014-10-02T11:45:00,0,28246123,195658
OK,56,41,882,56,2014-10-02T11:50:00,11,28246560,195658
OK,106,21,882,106,2014-10-02T11:55:00,8,28247009,195658
OK,113,20,882,113,2014-10-02T12:00:00,9,28247455,195658
OK,132,17,882,132,2014-10-02T12:05:00,6,28247885,195658
OK,130,17,882,130,2014-10-02T12:10:00,0,28248334,195658
OK,80,29,882,80,2014-10-02T12:15:00,7,28248781,195658
OK,116,20,882,116,2014-10-02T12:20:00,1,28249209,195658
OK,105,22,882,105,2014-10-02T12:25:00,11,28249653,195658
OK,104,22,882,104,2014-10-02T12:30:00,4,28250072,195658
OK,51,45,882,51,2014-10-02T12:35:00,6,28250470,195658
OK,113,20,882,113,2014-10-02T12:45:00,9,28251250,195658
OK,98,23,882,98,2014-10-02T13:20:00,7,28251795,195658
OK,90,25,882,90,2014-10-02T13:30:00,10,28252379,195658
OK,96,24,882,96,2014-10-02T13:35:00,6,28252821,195658
OK,110,21,882,110,2014-10-02T13:40:00,0,28253238,195658
OK,158,14,882,158,2014-10-02T13:45:00,15,28253687,195658
OK,186,12,882,186,2014-10-02T13:50:00,11,28254092,195658
OK,217,10,882,217,2014-10-02T13:55:00,9,28254413,195658
OK,64,36,882,64,2014-10-02T14:10:00,11,28254990,195658
OK,56,41,882,56,2014-10-02T14:15:00,6,28255439,195658
OK,94,24,882,94,2014-10-02T14:20:00,2,28255867,195658
OK,56,41,882,56,2014-10-02T14:25:00,0,28256316,195658
OK,173,13,882,173,2014-10-02T14:30:00,10,28256744,195658
OK,186,12,882,186,2014-10-02T14:35:00,10,28257193,195658
OK,267,8,882,267,2014-10-02T14:40:00,4,28257634,195658
OK,215,10,882,215,2014-10-02T14:45:00,11,28258082,195658
OK,92,25,882,92,2014-10-02T14:50:00,8,28258515,195658
OK,98,23,882,98,2014-10-02T14:55:00,4,28258961,195658
OK,148,15,882,148,2014-10-02T15:00:00,5,28259410,195658
OK,72,32,882,72,2014-10-02T15:05:00,5,28259857,195658
OK,85,27,882,85,2014-10-02T15:10:00,5,28260290,195658
OK,27,86,882,27,2014-10-02T15:15:00,5,28260739,195658
OK,18,129,882,18,2014-10-02T15:20:00,3,28261179,195658
OK,86,27,882,86,2014-10-02T15:25:00,5,28261561,195658
OK,60,38,882,60,2014-10-02T15:30:00,2,28261991,195658
OK,113,20,882,113,2014-10-02T15:40:00,1,28262884,195658
OK,32,72,882,32,2014-10-02T15:45:00,7,28263322,195658
OK,32,72,882,32,2014-10-02T15:50:00,5,28263763,195658
OK,32,72,882,32,2014-10-02T15:55:00,0,28264165,195658
OK,32,72,882,32,2014-10-02T16:00:00,0,28264614,195658
OK,90,25,882,90,2014-10-02T16:05:00,1,28265052,195658